This is the latest recevied weather packets stored in our database for station/object AB4KN. If no packets are shown the sender has not sent any weather packets the latest 10 day(s).
| Time | Temp. | Humidity | Pressure | Rain* | Wind** | Luminosity | Snow |
|---|---|---|---|---|---|---|---|
| 1777392636 | 13.89° C | 89% | 1028.7 hPa | 6.1 mm | - | 15 W/m² | - |
| 1777392333 | 13.89° C | 89% | 1028.9 hPa | 6.1 mm | - | 17 W/m² | - |
| 1777392032 | 13.89° C | 89% | 1029.1 hPa | 7.87 mm | - | 15 W/m² | - |
| 1777391727 | 13.89° C | 89% | 1029.4 hPa | 6.1 mm | - | 11 W/m² | - |
| 1777391425 | 13.89° C | 89% | 1029.4 hPa | 4.83 mm | - | 11 W/m² | - |
| 1777391121 | 13.89° C | 89% | 1029.5 hPa | 3.05 mm | - | 13 W/m² | - |
| 1777390817 | 13.89° C | 89% | 1029.6 hPa | 1.27 mm | - | 13 W/m² | - |
| 1777390514 | 13.89° C | 89% | 1029.6 hPa | 1.27 mm | - | 10 W/m² | - |
| 1777390210 | 13.89° C | 89% | 1029.5 hPa | 1.27 mm | - | 13 W/m² | - |
| 1777389906 | 13.89° C | 89% | 1029.4 hPa | 0 mm | - | 16 W/m² | - |
| 1777389604 | 13.89° C | 89% | 1029.5 hPa | 0 mm | - | 13 W/m² | - |
| 1777389299 | 13.89° C | 89% | 1029.6 hPa | 3.05 mm | - | 14 W/m² | - |
| 1777388998 | 13.89° C | 89% | 1029.8 hPa | 3.05 mm | - | 17 W/m² | - |
| 1777388695 | 13.89° C | 89% | 1029.8 hPa | 0 mm | - | 15 W/m² | - |
| 1777388391 | 13.89° C | 89% | 1029.6 hPa | 0 mm | - | 12 W/m² | - |
| 1777388091 | 13.89° C | 89% | 1029.5 hPa | 1.78 mm | - | 16 W/m² | - |
| 1777387787 | 13.89° C | 89% | 1029.4 hPa | 1.78 mm | - | 19 W/m² | - |
| 1777387484 | 13.89° C | 89% | 1029.5 hPa | 0 mm | - | 12 W/m² | - |
| 1777387179 | 13.89° C | 89% | 1029.6 hPa | 1.27 mm | - | 11 W/m² | - |
| 1777386874 | 13.89° C | 89% | 1029.2 hPa | 3.05 mm | - | 12 W/m² | - |
| 1777386572 | 13.89° C | 89% | 1029.5 hPa | 4.83 mm | - | 5 W/m² | - |
| 1777386269 | 13.89° C | 89% | 1029.6 hPa | 10.67 mm | - | 10 W/m² | - |
| 1777385966 | 13.89° C | 89% | 1030.2 hPa | 15.49 mm | - | 4 W/m² | - |
| 1777385662 | 13.89° C | 89% | 1030 hPa | 10.16 mm | - | 4 W/m² | - |
| 1777385360 | 13.89° C | 89% | 1030.2 hPa | 1.27 mm | - | 2 W/m² | - |
* Rain latest hour (hover to see other rain measurements)
** Current wind speed in m/s (hover to see current wind gust speed)